IW2NIA-3 Weather Reports


Display with metric or nautical units.
time (UTC)temp
F
wind
direction
speed
MPH
gust
MPH
rain 1hr
in
rain 24hr
in
rain mn
in
humidity
%
barometer
mb
20260508231843 54 75 0.0 3.0 0.00 0.00 0.00 89 1015.9
20260508230342 54 72 3.0 5.0 0.00 0.00 0.00 88 1015.9
20260508224832 54 46 0.0 2.0 0.00 0.00 0.00 88 1016.1
20260508223346 54 46 2.0 4.0 0.00 0.00 0.00 88 1016.1
20260508221841 54 67 2.0 4.0 0.00 0.00 0.00 88 1016.0
20260508220335 54 58 1.0 3.0 0.00 0.00 0.00 88 1016.0
20260508214828 55 58 0.0 0.0 0.00 0.00 0.00 88 1016.1
20260508213341 55 58 0.0 0.0 0.00 0.00 0.00 88 1015.9
20260508211837 56 58 0.0 0.0 0.00 0.00 0.00 87 1015.9
20260508210333 56 58 0.0 0.0 0.00 0.00 0.00 87 1015.9
20260508204839 57 58 0.0 2.0 0.00 0.00 0.00 86 1015.8
20260508203335 57 58 2.0 3.0 0.00 0.00 0.00 85 1015.8
20260508201834 57 37 0.0 0.0 0.00 0.00 0.00 85 1015.8
20260508200345 58 37 4.0 4.0 0.00 0.00 0.00 83 1015.8
20260508194838 58 79 2.0 3.0 0.00 0.00 0.00 82 1015.4
20260508193330 59 79 0.0 0.0 0.00 0.00 0.00 80 1015.3
20260508191847 60 79 0.0 0.0 0.00 0.00 0.00 78 1015.1
20260508190340 60 79 0.0 0.0 0.00 0.00 0.00 76 1014.9
20260508184837 61 79 0.0 5.0 0.00 0.00 0.00 75 1014.6
20260508183329 61 71 1.0 5.0 0.00 0.00 0.00 74 1014.5
20260508181829 62 75 2.0 5.0 0.00 0.00 0.00 73 1014.4
20260508180340 62 72 3.0 6.0 0.00 0.00 0.00 71 1014.4
20260508174838 63 51 3.0 4.0 0.00 0.00 0.00 69 1014.5
20260508173333 63 88 2.0 6.0 0.00 0.00 0.00 70 1014.3
20260508171828 63 76 3.0 4.0 0.00 0.00 0.00 70 1014.4
20260508170341 63 92 3.0 7.0 0.00 0.00 0.00 70 1014.3
20260508164830 64 64 3.0 6.0 0.00 0.00 0.00 69 1014.2
20260508163328 63 10 3.0 5.0 0.00 0.00 0.00 68 1014.1
20260508161841 63 42 1.0 3.0 0.00 0.00 0.00 69 1014.1
20260508160337 63 72 1.0 7.0 0.00 0.00 0.00 70 1014.1
20260508154832 62 82 5.0 6.0 0.00 0.00 0.00 71 1014.2
20260508153329 62 57 4.0 13.0 0.00 0.00 0.00 71 1014.3
20260508151847 62 19 4.0 14.0 0.00 0.00 0.00 72 1014.5
20260508150338 64 32 5.0 12.0 0.00 0.00 0.00 69 1014.7
20260508144828 65 313 4.0 15.0 0.00 0.00 0.00 66 1014.6
20260508143346 67 346 5.0 13.0 0.00 0.00 0.00 66 1014.5
20260508141840 68 311 9.0 14.0 0.00 0.00 0.00 66 1014.5
20260508140329 70 281 2.0 5.0 0.00 0.00 0.00 66 1014.5
20260508134842 68 236 5.0 7.0 0.00 0.00 0.00 64 1014.6
20260508133334 69 238 2.0 8.0 0.00 0.00 0.00 65 1014.6
20260508131828 68 238 5.0 9.0 0.00 0.00 0.00 64 1014.7
20260508130344 69 126 3.0 7.0 0.00 0.00 0.00 63 1014.8
20260508124825 69 210 6.0 10.0 0.00 0.00 0.00 61 1014.8
20260508123342 68 261 4.0 7.0 0.00 0.00 0.00 64 1014.8
20260508121844 67 232 4.0 7.0 0.00 0.00 0.00 63 1015.0
20260508120337 68 200 4.0 13.0 0.00 0.00 0.00 65 1015.0
20260508114832 68 197 3.0 7.0 0.00 0.00 0.00 66 1014.9
20260508113327 68 234 4.0 7.0 0.00 0.00 0.00 64 1015.1
20260508111840 67 133 2.0 7.0 0.00 0.00 0.00 67 1015.3
20260508110338 68 211 3.0 9.0 0.00 0.00 0.00 65 1015.3
20260508104834 66 170 4.0 7.0 0.00 0.00 0.00 68 1015.5
20260508103335 66 239 3.0 7.0 0.00 0.00 0.00 70 1015.5
20260508101828 65 227 3.0 5.0 0.00 0.00 0.00 70 1015.6
20260508100325 65 215 3.0 10.0 0.00 0.00 0.00 68 1015.6
20260508094837 65 241 4.0 12.0 0.00 0.00 0.00 69 1015.6
20260508093346 65 103 2.0 12.0 0.00 0.00 0.00 69 1015.6
20260508091837 64 184 3.0 7.0 0.00 0.00 0.00 71 1015.6
20260508090334 64 180 2.0 9.0 0.00 0.00 0.00 72 1015.6
20260508084831 64 175 2.0 9.0 0.00 0.00 0.00 73 1015.7
20260508083346 63 220 4.0 6.0 0.00 0.00 0.00 73 1015.7
20260508081841 63 235 3.0 6.0 0.00 0.00 0.00 74 1015.7
20260508080330 62 234 0.0 3.0 0.00 0.00 0.00 74 1015.5
20260508074842 62 193 2.0 4.0 0.00 0.00 0.00 77 1015.4
20260508073338 61 10 2.0 3.0 0.00 0.00 0.00 79 1015.4
20260508071829 60 11 1.0 3.0 0.00 0.00 0.00 81 1015.3
20260508070345 60 11 2.0 3.0 0.00 0.00 0.00 84 1015.2
20260508064833 59 11 2.0 5.0 0.00 0.00 0.00 83 1015.1
20260508063346 59 15 3.0 5.0 0.00 0.00 0.00 83 1015.0
20260508061842 59 33 2.0 4.0 0.00 0.00 0.00 82 1014.8
20260508060339 59 50 1.0 4.0 0.00 0.00 0.00 82 1014.6
20260508054838 58 53 3.0 4.0 0.00 0.00 0.00 84 1014.5
20260508053335 56 53 3.0 4.0 0.00 0.00 0.00 86 1014.4
20260508051833 54 55 2.0 4.0 0.00 0.00 0.00 88 1014.3
20260508050348 53 103 1.0 3.0 0.00 0.00 0.00 89 1014.1
20260508044839 53 103 2.0 3.0 0.00 0.00 0.00 89 1014.1
20260508043336 52 103 0.0 0.0 0.00 0.01 0.00 88 1014.1
20260508041847 52 103 0.0 0.0 0.00 0.01 0.00 88 1014.0
20260508040342 53 103 0.0 0.0 0.00 0.01 0.00 88 1013.9
20260508034836 53 103 0.0 0.0 0.00 0.01 0.00 88 1013.8
20260508033333 52 103 1.0 2.0 0.00 0.03 0.00 88 1013.9
20260508031834 53 103 2.0 4.0 0.00 0.03 0.00 88 1013.8
20260508030328 53 103 3.0 4.0 0.00 0.03 0.00 88 1013.8
20260508024837 53 102 3.0 5.0 0.00 0.03 0.00 89 1013.7
20260508023330 52 103 1.0 4.0 0.00 0.03 0.00 89 1013.8
20260508021826 52 104 3.0 5.0 0.00 0.03 0.00 90 1013.7
20260508020348 51 184 0.0 3.0 0.00 0.03 0.00 90 1013.8
20260508014838 51 57 0.0 4.0 0.00 0.03 0.00 90 1013.7
20260508013339 51 142 0.0 2.0 0.00 0.03 0.00 89 1013.5
20260508011830 51 142 0.0 0.0 0.00 0.03 0.00 89 1013.5
20260508010343 51 142 0.0 0.0 0.00 0.03 0.00 90 1013.4
20260508004835 51 142 1.0 3.0 0.00 0.03 0.00 90 1013.5
20260508003329 51 144 2.0 4.0 0.00 0.03 0.00 89 1013.6
20260508001841 51 147 2.0 3.0 0.00 0.03 0.00 89 1013.6
20260508000337 51 156 0.0 0.0 0.00 0.03 0.00 89 1013.7
20260507234828 52 156 1.0 3.0 0.00 0.03 0.00 89 1013.6
20260507233325 52 157 1.0 2.0 0.00 0.03 0.00 89 1013.6